owner,sensor,date,latitude,longitude,vertical_datum,wind_speed,wind_to_direction,wind_speed_of_gust,qcFlag 
COMPS,ioos:station:USF.COMPS:C10:1,2015-09-01T00:05:00Z,27.1690,-82.9260,3.0,3.552,242.881,8.1,'1111122,1111122,1111122' 
COMPS,ioos:station:USF.COMPS:C10:1,2015-09-01T00:35:00Z,27.1690,-82.9260,3.0,4.702,263.157,6.943,'1111122,1111122,1111122' 
COMPS,ioos:station:USF.COMPS:C10:1,2015-09-01T01:05:00Z,27.1690,-82.9260,3.0,3.59,216.238,4.837,'1111122,1111122,1111122' 
COMPS,ioos:station:USF.COMPS:C10:1,2015-09-01T01:35:00Z,27.1690,-82.9260,3.0,3.303,223.135,4.79,'1111122,1111122,1111122' 
COMPS,ioos:station:USF.COMPS:C10:1,2015-09-01T02:05:00Z,27.1690,-82.9260,3.0,3.721,222.672,5.02,'1111122,1111122,1111122' 
COMPS,ioos:station:USF.COMPS:C10:1,2015-09-01T02:35:00Z,27.1690,-82.9260,3.0,2.507,194.886,3.77,'1111122,1111122,1111122' 
COMPS,ioos:station:USF.COMPS:C10:1,2015-09-01T03:05:00Z,27.1690,-82.9260,3.0,3.286,175.147,4.66,'1111122,1111122,1111122' 
COMPS,ioos:station:USF.COMPS:C10:1,2015-09-01T03:35:00Z,27.1690,-82.9260,3.0,3.777,171.757,4.897,'1111122,1111122,1111122' 
COMPS,ioos:station:USF.COMPS:C10:1,2015-09-01T04:05:00Z,27.1690,-82.9260,3.0,3.956,171.583,4.957,'1111122,1111122,1111122' 
COMPS,ioos:station:USF.COMPS:C10:1,2015-09-01T04:35:00Z,27.1690,-82.9260,3.0,5.174,164.06,6.513,'1111122,1111122,1111122' 
COMPS,ioos:station:USF.COMPS:C10:1,2015-09-01T05:05:00Z,27.1690,-82.9260,3.0,4.76,154.53,5.977,'1111122,1111122,1111122' 
COMPS,ioos:station:USF.COMPS:C10:1,2015-09-01T05:35:00Z,27.1690,-82.9260,3.0,5.682,165.951,7.25,'1111122,1111122,1111122' 
COMPS,ioos:station:USF.COMPS:C10:1,2015-09-01T06:05:00Z,27.1690,-82.9260,3.0,6.561,163.673,8.3,'1111122,1111122,1111122' 
COMPS,ioos:station:USF.COMPS:C10:1,2015-09-01T06:35:00Z,27.1690,-82.9260,3.0,6.653,172.819,8.303,'1111122,1111122,1111122' 
COMPS,ioos:station:USF.COMPS:C10:1,2015-09-01T07:05:00Z,27.1690,-82.9260,3.0,6.003,179.337,7.573,'1111122,1111122,1111122' 
COMPS,ioos:station:USF.COMPS:C10:1,2015-09-01T07:35:00Z,27.1690,-82.9260,3.0,6.639,186.78,8.423,'1111122,1111122,1111122' 
COMPS,ioos:station:USF.COMPS:C10:1,2015-09-01T08:05:00Z,27.1690,-82.9260,3.0,6.952,189.069,8.303,'1111122,1111122,1111122' 
COMPS,ioos:station:USF.COMPS:C10:1,2015-09-01T08:35:00Z,27.1690,-82.9260,3.0,6.3,188.702,7.61,'1111122,1111122,1111122' 
COMPS,ioos:station:USF.COMPS:C10:1,2015-09-01T09:05:00Z,27.1690,-82.9260,3.0,6.944,187.608,8.387,'1111122,1111122,1111122' 
COMPS,ioos:station:USF.COMPS:C10:1,2015-09-01T09:35:00Z,27.1690,-82.9260,3.0,6.673,193.879,8.247,'1111122,1111122,1111122' 
COMPS,ioos:station:USF.COMPS:C10:1,2015-09-01T10:05:00Z,27.1690,-82.9260,3.0,6.795,188.631,8.85,'1111122,1111122,1111122' 
COMPS,ioos:station:USF.COMPS:C10:1,2015-09-01T10:35:00Z,27.1690,-82.9260,3.0,7.101,190.017,9.297,'1111122,1111122,1111122' 
COMPS,ioos:station:USF.COMPS:C10:1,2015-09-01T11:05:00Z,27.1690,-82.9260,3.0,6.457,191.803,8.123,'1111122,1111122,1111122' 
COMPS,ioos:station:USF.COMPS:C10:1,2015-09-01T11:35:00Z,27.1690,-82.9260,3.0,7.723,185.502,9.37,'1111122,1111122,1111122' 
COMPS,ioos:station:USF.COMPS:C10:1,2015-09-01T12:05:00Z,27.1690,-82.9260,3.0,7.395,184.967,9.287,'1111122,1111122,1111122' 
COMPS,ioos:station:USF.COMPS:C10:1,2015-09-01T12:35:00Z,27.1690,-82.9260,3.0,6.931,188.177,8.303,'1111122,1111122,1111122' 
COMPS,ioos:station:USF.COMPS:C10:1,2015-09-01T13:05:00Z,27.1690,-82.9260,3.0,7.541,186.114,9.427,'1111122,1111122,1111122' 
COMPS,ioos:station:USF.COMPS:C10:1,2015-09-01T13:35:00Z,27.1690,-82.9260,3.0,7.494,177.683,9.1,'1111122,1111122,1111122' 
COMPS,ioos:station:USF.COMPS:C10:1,2015-09-01T14:05:00Z,27.1690,-82.9260,3.0,7.684,176.819,9.253,'1111122,1111122,1111122' 
COMPS,ioos:station:USF.COMPS:C10:1,2015-09-01T14:35:00Z,27.1690,-82.9260,3.0,8.199,181.468,10.043,'1111122,1111122,1111122' 
COMPS,ioos:station:USF.COMPS:C10:1,2015-09-01T15:05:00Z,27.1690,-82.9260,3.0,8.312,185.342,10.163,'1111122,1111122,1111122' 
COMPS,ioos:station:USF.COMPS:C10:1,2015-09-01T15:35:00Z,27.1690,-82.9260,3.0,7.836,188.659,9.393,'1111122,1111122,1111122' 
COMPS,ioos:station:USF.COMPS:C10:1,2015-09-01T16:05:00Z,27.1690,-82.9260,3.0,7.154,191.646,8.677,'1111122,1111122,1111122' 
COMPS,ioos:station:USF.COMPS:C10:1,2015-09-01T16:35:00Z,27.1690,-82.9260,3.0,6.639,192.781,8.157,'1111122,1111122,1111122' 
COMPS,ioos:station:USF.COMPS:C10:1,2015-09-01T17:05:00Z,27.1690,-82.9260,3.0,6.559,192.764,8.047,'1111122,1111122,1111122' 
COMPS,ioos:station:USF.COMPS:C10:1,2015-09-01T17:35:00Z,27.1690,-82.9260,3.0,6.107,197.181,7.463,'1111122,1111122,1111122' 
COMPS,ioos:station:USF.COMPS:C10:1,2015-09-01T18:05:00Z,27.1690,-82.9260,3.0,6.097,197.05,7.23,'1111122,1111122,1111122' 
COMPS,ioos:station:USF.COMPS:C10:1,2015-09-01T18:35:00Z,27.1690,-82.9260,3.0,6.311,203.156,8.18,'1111122,1111122,1111122' 
COMPS,ioos:station:USF.COMPS:C10:1,2015-09-01T19:05:00Z,27.1690,-82.9260,3.0,6.067,202.104,7.987,'1111122,1111122,1111122' 
COMPS,ioos:station:USF.COMPS:C10:1,2015-09-01T19:35:00Z,27.1690,-82.9260,3.0,5.16,292.382,8.727,'1111122,1111122,1111122' 
COMPS,ioos:station:USF.COMPS:C10:1,2015-09-01T20:05:00Z,27.1690,-82.9260,3.0,4.117,285.397,6.933,'1111122,1111122,1111122' 
COMPS,ioos:station:USF.COMPS:C10:1,2015-09-01T20:35:00Z,27.1690,-82.9260,3.0,5.294,276.076,6.583,'1111122,1111122,1111122' 
COMPS,ioos:station:USF.COMPS:C10:1,2015-09-01T21:05:00Z,27.1690,-82.9260,3.0,5.823,270.808,7.8,'1111122,1111122,1111122' 
COMPS,ioos:station:USF.COMPS:C10:1,2015-09-01T21:35:00Z,27.1690,-82.9260,3.0,3.984,258.728,5.917,'1111122,1111122,1111122' 
COMPS,ioos:station:USF.COMPS:C10:1,2015-09-01T22:05:00Z,27.1690,-82.9260,3.0,3.934,267.761,5.417,'1111122,1111122,1111122' 
COMPS,ioos:station:USF.COMPS:C10:1,2015-09-01T22:35:00Z,27.1690,-82.9260,3.0,2.109,273.031,3.437,'1111122,1111122,1111122' 
COMPS,ioos:station:USF.COMPS:C10:1,2015-09-01T23:05:00Z,27.1690,-82.9260,3.0,2.258,273.735,3.21,'1111122,1111122,1111122' 
COMPS,ioos:station:USF.COMPS:C10:1,2015-09-01T23:35:00Z,27.1690,-82.9260,3.0,1.228,251.369,1.877,'1111122,1111122,1111122' 
COMPS,ioos:station:USF.COMPS:C10:1,2015-09-02T00:05:00Z,27.1690,-82.9260,3.0,0.78,221.332,1.607,'1111122,1111122,1111122' 
COMPS,ioos:station:USF.COMPS:C10:1,2015-09-02T00:35:00Z,27.1690,-82.9260,3.0,1.054,185.131,1.59,'1111122,1111122,1111122' 
COMPS,ioos:station:USF.COMPS:C10:1,2015-09-02T01:05:00Z,27.1690,-82.9260,3.0,1.088,204.338,1.67,'1111122,1111122,1111122' 
COMPS,ioos:station:USF.COMPS:C10:1,2015-09-02T01:35:00Z,27.1690,-82.9260,3.0,0.657,248.343,1.153,'1111122,1111122,1111122' 
COMPS,ioos:station:USF.COMPS:C10:1,2015-09-02T02:05:00Z,27.1690,-82.9260,3.0,0.694,217.171,1.287,'1111122,1111122,1111122' 
COMPS,ioos:station:USF.COMPS:C10:1,2015-09-02T02:35:00Z,27.1690,-82.9260,3.0,0.956,180.571,1.427,'1111122,1111122,1111122' 
COMPS,ioos:station:USF.COMPS:C10:1,2015-09-02T03:05:00Z,27.1690,-82.9260,3.0,1.388,165.035,1.897,'1111122,1111122,1111122' 
COMPS,ioos:station:USF.COMPS:C10:1,2015-09-02T03:35:00Z,27.1690,-82.9260,3.0,1.551,151.046,2.443,'1111122,1111122,1111122' 
COMPS,ioos:station:USF.COMPS:C10:1,2015-09-02T04:05:00Z,27.1690,-82.9260,3.0,1.436,165.899,2.29,'1111122,1111122,1111122' 
COMPS,ioos:station:USF.COMPS:C10:1,2015-09-02T04:35:00Z,27.1690,-82.9260,3.0,1.209,188.584,1.977,'1111122,1111122,1111122' 
COMPS,ioos:station:USF.COMPS:C10:1,2015-09-02T05:05:00Z,27.1690,-82.9260,3.0,1.214,176.697,2.097,'1111122,1111122,1111122' 
COMPS,ioos:station:USF.COMPS:C10:1,2015-09-02T05:35:00Z,27.1690,-82.9260,3.0,1.911,181.093,2.687,'1111122,1111122,1111122' 
COMPS,ioos:station:USF.COMPS:C10:1,2015-09-02T06:05:00Z,27.1690,-82.9260,3.0,2.066,195.075,2.673,'1111122,1111122,1111122' 
COMPS,ioos:station:USF.COMPS:C10:1,2015-09-02T06:35:00Z,27.1690,-82.9260,3.0,1.956,191.595,2.77,'1111122,1111122,1111122' 
COMPS,ioos:station:USF.COMPS:C10:1,2015-09-02T07:05:00Z,27.1690,-82.9260,3.0,1.771,176.817,2.363,'1111122,1111122,1111122' 
COMPS,ioos:station:USF.COMPS:C10:1,2015-09-02T07:35:00Z,27.1690,-82.9260,3.0,1.647,184.349,2.253,'1111122,1111122,1111122' 
COMPS,ioos:station:USF.COMPS:C10:1,2015-09-02T08:05:00Z,27.1690,-82.9260,3.0,1.907,197.769,2.893,'1111122,1111122,1111122' 
COMPS,ioos:station:USF.COMPS:C10:1,2015-09-02T08:35:00Z,27.1690,-82.9260,3.0,2.004,181.097,2.95,'1111122,1111122,1111122' 
COMPS,ioos:station:USF.COMPS:C10:1,2015-09-02T09:05:00Z,27.1690,-82.9260,3.0,1.956,203.992,2.72,'1111122,1111122,1111122' 
COMPS,ioos:station:USF.COMPS:C10:1,2015-09-02T09:35:00Z,27.1690,-82.9260,3.0,1.18,194.414,2.123,'1111122,1111122,1111122' 
COMPS,ioos:station:USF.COMPS:C10:1,2015-09-02T10:05:00Z,27.1690,-82.9260,3.0,1.557,224.439,2.57,'1111122,1111122,1111122' 
COMPS,ioos:station:USF.COMPS:C10:1,2015-09-02T10:35:00Z,27.1690,-82.9260,3.0,1.498,187.431,2.07,'1111122,1111122,1111122' 
COMPS,ioos:station:USF.COMPS:C10:1,2015-09-02T11:05:00Z,27.1690,-82.9260,3.0,1.341,245.568,1.99,'1111122,1111122,1111122' 
COMPS,ioos:station:USF.COMPS:C10:1,2015-09-02T11:35:00Z,27.1690,-82.9260,3.0,0.586,154.288,1.08,'1111122,1111122,1111122' 
COMPS,ioos:station:USF.COMPS:C10:1,2015-09-02T12:05:00Z,27.1690,-82.9260,3.0,0.572,125.855,1.207,'1111122,1111122,1111122' 
COMPS,ioos:station:USF.COMPS:C10:1,2015-09-02T12:35:00Z,27.1690,-82.9260,3.0,0.549,285.842,1.267,'1111122,1111122,1111122' 
COMPS,ioos:station:USF.COMPS:C10:1,2015-09-02T13:05:00Z,27.1690,-82.9260,3.0,0.435,103.854,0.977,'1111122,1111122,1111122' 
COMPS,ioos:station:USF.COMPS:C10:1,2015-09-02T13:35:00Z,27.1690,-82.9260,3.0,0.655,166.032,1.143,'1111122,1111122,1111122' 
COMPS,ioos:station:USF.COMPS:C10:1,2015-09-02T14:05:00Z,27.1690,-82.9260,3.0,0.665,196.495,1.027,'1111122,1111122,1111122' 
COMPS,ioos:station:USF.COMPS:C10:1,2015-09-02T14:35:00Z,27.1690,-82.9260,3.0,1.446,126.779,2.063,'1111122,1111122,1111122' 
COMPS,ioos:station:USF.COMPS:C10:1,2015-09-02T15:05:00Z,27.1690,-82.9260,3.0,0.921,149.104,1.87,'1111122,1111122,1111122' 
COMPS,ioos:station:USF.COMPS:C10:1,2015-09-02T15:35:00Z,27.1690,-82.9260,3.0,1.153,96.035,2.13,'1111122,1111122,1111122' 
COMPS,ioos:station:USF.COMPS:C10:1,2015-09-02T16:05:00Z,27.1690,-82.9260,3.0,0.927,110.216,1.697,'1111122,1111122,1111122' 
COMPS,ioos:station:USF.COMPS:C10:1,2015-09-02T16:35:00Z,27.1690,-82.9260,3.0,1.09,126.52,1.763,'1111122,1111122,1111122' 
COMPS,ioos:station:USF.COMPS:C10:1,2015-09-02T17:05:00Z,27.1690,-82.9260,3.0,0.708,105.264,1.55,'1111122,1111122,1111122' 
COMPS,ioos:station:USF.COMPS:C10:1,2015-09-02T17:35:00Z,27.1690,-82.9260,3.0,0.621,147.035,1.423,'1111122,1111122,1111122' 
COMPS,ioos:station:USF.COMPS:C10:1,2015-09-02T18:05:00Z,27.1690,-82.9260,3.0,1.027,305.01,1.86,'1111122,1111122,1111122' 
COMPS,ioos:station:USF.COMPS:C10:1,2015-09-02T18:35:00Z,27.1690,-82.9260,3.0,0.668,317.639,1.817,'1111122,1111122,1111122' 
COMPS,ioos:station:USF.COMPS:C10:1,2015-09-02T19:05:00Z,27.1690,-82.9260,3.0,1.586,309.63,3.02,'1111122,1111122,1111122' 
COMPS,ioos:station:USF.COMPS:C10:1,2015-09-02T19:35:00Z,27.1690,-82.9260,3.0,2.274,329.407,3.16,'1111122,1111122,1111122' 
COMPS,ioos:station:USF.COMPS:C10:1,2015-09-02T20:05:00Z,27.1690,-82.9260,3.0,1.487,321.883,2.637,'1111122,1111122,1111122' 
COMPS,ioos:station:USF.COMPS:C10:1,2015-09-02T20:35:00Z,27.1690,-82.9260,3.0,1.843,330.766,2.97,'1111122,1111122,1111122' 
COMPS,ioos:station:USF.COMPS:C10:1,2015-09-02T21:05:00Z,27.1690,-82.9260,3.0,1.832,322.792,2.767,'1111122,1111122,1111122' 
COMPS,ioos:station:USF.COMPS:C10:1,2015-09-02T21:35:00Z,27.1690,-82.9260,3.0,2.312,320.984,2.977,'1111122,1111122,1111122' 
COMPS,ioos:station:USF.COMPS:C10:1,2015-09-02T22:05:00Z,27.1690,-82.9260,3.0,3.174,325.779,4.427,'1111122,1111122,1111122' 
COMPS,ioos:station:USF.COMPS:C10:1,2015-09-02T22:35:00Z,27.1690,-82.9260,3.0,3.326,325.807,4.84,'1111122,1111122,1111122' 
COMPS,ioos:station:USF.COMPS:C10:1,2015-09-02T23:05:00Z,27.1690,-82.9260,3.0,2.873,338.054,4.093,'1111122,1111122,1111122' 
COMPS,ioos:station:USF.COMPS:C10:1,2015-09-02T23:35:00Z,27.1690,-82.9260,3.0,3.592,332.082,4.7,'1111122,1111122,1111122' 
COMPS,ioos:station:USF.COMPS:C10:1,2015-09-03T00:05:00Z,27.1690,-82.9260,3.0,3.417,341.995,4.653,'1111122,1111122,1111122' 
COMPS,ioos:station:USF.COMPS:C10:1,2015-09-03T00:35:00Z,27.1690,-82.9260,3.0,3.629,328.474,4.93,'1111122,1111122,1111122' 
COMPS,ioos:station:USF.COMPS:C10:1,2015-09-03T01:05:00Z,27.1690,-82.9260,3.0,4.099,327.808,5.657,'1111122,1111122,1111122' 
COMPS,ioos:station:USF.COMPS:C10:1,2015-09-03T01:35:00Z,27.1690,-82.9260,3.0,4.535,338.077,5.513,'1111122,1111122,1111122' 
COMPS,ioos:station:USF.COMPS:C10:1,2015-09-03T02:05:00Z,27.1690,-82.9260,3.0,4.359,334.494,5.323,'1111122,1111122,1111122' 
COMPS,ioos:station:USF.COMPS:C10:1,2015-09-03T02:35:00Z,27.1690,-82.9260,3.0,4.248,337.94,5.157,'1111122,1111122,1111122' 
COMPS,ioos:station:USF.COMPS:C10:1,2015-09-03T03:05:00Z,27.1690,-82.9260,3.0,4.221,336.739,5.893,'1111122,1111122,1111122' 
COMPS,ioos:station:USF.COMPS:C10:1,2015-09-03T03:35:00Z,27.1690,-82.9260,3.0,3.4,329.737,4.217,'1111122,1111122,1111122' 
COMPS,ioos:station:USF.COMPS:C10:1,2015-09-03T04:05:00Z,27.1690,-82.9260,3.0,2.61,324.432,3.603,'1111122,1111122,1111122' 
COMPS,ioos:station:USF.COMPS:C10:1,2015-09-03T04:35:00Z,27.1690,-82.9260,3.0,3.007,332.106,4.163,'1111122,1111122,1111122' 
COMPS,ioos:station:USF.COMPS:C10:1,2015-09-03T05:05:00Z,27.1690,-82.9260,3.0,3.63,327.685,4.787,'1111122,1111122,1111122' 
COMPS,ioos:station:USF.COMPS:C10:1,2015-09-03T05:35:00Z,27.1690,-82.9260,3.0,3.319,321.401,4.373,'1111122,1111122,1111122' 
COMPS,ioos:station:USF.COMPS:C10:1,2015-09-03T06:05:00Z,27.1690,-82.9260,3.0,2.837,319.321,3.7,'1111122,1111122,1111122' 
COMPS,ioos:station:USF.COMPS:C10:1,2015-09-03T06:35:00Z,27.1690,-82.9260,3.0,2.666,311.37,3.98,'1111122,1111122,1111122' 
COMPS,ioos:station:USF.COMPS:C10:1,2015-09-03T07:05:00Z,27.1690,-82.9260,3.0,2.413,315.276,3.32,'1111122,1111122,1111122' 
COMPS,ioos:station:USF.COMPS:C10:1,2015-09-03T07:35:00Z,27.1690,-82.9260,3.0,2.46,311.781,3.783,'1111122,1111122,1111122' 
COMPS,ioos:station:USF.COMPS:C10:1,2015-09-03T08:05:00Z,27.1690,-82.9260,3.0,1.924,287.938,2.72,'1111122,1111122,1111122' 
COMPS,ioos:station:USF.COMPS:C10:1,2015-09-03T08:35:00Z,27.1690,-82.9260,3.0,1.927,284.073,2.813,'1111122,1111122,1111122' 
COMPS,ioos:station:USF.COMPS:C10:1,2015-09-03T09:05:00Z,27.1690,-82.9260,3.0,1.738,296.489,2.31,'1111122,1111122,1111122' 
COMPS,ioos:station:USF.COMPS:C10:1,2015-09-03T09:35:00Z,27.1690,-82.9260,3.0,2.128,310.979,2.813,'1111122,1111122,1111122' 
COMPS,ioos:station:USF.COMPS:C10:1,2015-09-03T10:05:00Z,27.1690,-82.9260,3.0,1.745,293.122,2.733,'1111122,1111122,1111122' 
COMPS,ioos:station:USF.COMPS:C10:1,2015-09-03T10:35:00Z,27.1690,-82.9260,3.0,2.112,308.407,3.3,'1111122,1111122,1111122' 
COMPS,ioos:station:USF.COMPS:C10:1,2015-09-03T11:05:00Z,27.1690,-82.9260,3.0,2.33,307.509,3.617,'1111122,1111122,1111122' 
COMPS,ioos:station:USF.COMPS:C10:1,2015-09-03T11:35:00Z,27.1690,-82.9260,3.0,2.546,303.687,3.317,'1111122,1111122,1111122' 
COMPS,ioos:station:USF.COMPS:C10:1,2015-09-03T12:05:00Z,27.1690,-82.9260,3.0,2.304,322.131,3.053,'1111122,1111122,1111122' 
COMPS,ioos:station:USF.COMPS:C10:1,2015-09-03T12:35:00Z,27.1690,-82.9260,3.0,1.999,327.293,2.76,'1111122,1111122,1111122' 
COMPS,ioos:station:USF.COMPS:C10:1,2015-09-03T13:05:00Z,27.1690,-82.9260,3.0,2.164,333.093,2.937,'1111122,1111122,1111122' 
COMPS,ioos:station:USF.COMPS:C10:1,2015-09-03T13:35:00Z,27.1690,-82.9260,3.0,2.097,330.404,3.147,'1111122,1111122,1111122' 
COMPS,ioos:station:USF.COMPS:C10:1,2015-09-03T14:05:00Z,27.1690,-82.9260,3.0,2.24,330.832,3.387,'1111122,1111122,1111122' 
COMPS,ioos:station:USF.COMPS:C10:1,2015-09-03T14:35:00Z,27.1690,-82.9260,3.0,2.431,340.931,3.417,'1111122,1111122,1111122' 
COMPS,ioos:station:USF.COMPS:C10:1,2015-09-03T15:05:00Z,27.1690,-82.9260,3.0,2.847,348.699,3.77,'1111122,1111122,1111122' 
COMPS,ioos:station:USF.COMPS:C10:1,2015-09-03T15:35:00Z,27.1690,-82.9260,3.0,2.61,341.649,3.563,'1111122,1111122,1111122' 
COMPS,ioos:station:USF.COMPS:C10:1,2015-09-03T16:05:00Z,27.1690,-82.9260,3.0,2.594,3.028,3.463,'1111122,1111122,1111122' 
COMPS,ioos:station:USF.COMPS:C10:1,2015-09-03T16:35:00Z,27.1690,-82.9260,3.0,2.441,352.399,3.393,'1111122,1111122,1111122' 
COMPS,ioos:station:USF.COMPS:C10:1,2015-09-03T17:05:00Z,27.1690,-82.9260,3.0,2.881,349.68,4.05,'1111122,1111122,1111122' 
COMPS,ioos:station:USF.COMPS:C10:1,2015-09-03T17:35:00Z,27.1690,-82.9260,3.0,3.225,351.798,4.147,'1111122,1111122,1111122' 
COMPS,ioos:station:USF.COMPS:C10:1,2015-09-03T18:05:00Z,27.1690,-82.9260,3.0,2.881,348.81,3.98,'1111122,1111122,1111122' 
COMPS,ioos:station:USF.COMPS:C10:1,2015-09-03T18:35:00Z,27.1690,-82.9260,3.0,2.137,346.223,2.933,'1111122,1111122,1111122' 
COMPS,ioos:station:USF.COMPS:C10:1,2015-09-03T19:05:00Z,27.1690,-82.9260,3.0,2.833,329.03,3.9,'1111122,1111122,1111122' 
COMPS,ioos:station:USF.COMPS:C10:1,2015-09-03T19:35:00Z,27.1690,-82.9260,3.0,2.813,340.207,4.07,'1111122,1111122,1111122' 
COMPS,ioos:station:USF.COMPS:C10:1,2015-09-03T20:05:00Z,27.1690,-82.9260,3.0,2.985,325.459,4.12,'1111122,1111122,1111122' 
COMPS,ioos:station:USF.COMPS:C10:1,2015-09-03T20:35:00Z,27.1690,-82.9260,3.0,3.483,322.028,4.457,'1111122,1111122,1111122' 
COMPS,ioos:station:USF.COMPS:C10:1,2015-09-03T21:05:00Z,27.1690,-82.9260,3.0,4.145,310.13,5.283,'1111122,1111122,1111122' 
COMPS,ioos:station:USF.COMPS:C10:1,2015-09-03T21:35:00Z,27.1690,-82.9260,3.0,4.417,311.989,5.7,'1111122,1111122,1111122' 
COMPS,ioos:station:USF.COMPS:C10:1,2015-09-03T22:05:00Z,27.1690,-82.9260,3.0,4.007,309.764,5.627,'1111122,1111122,1111122' 
COMPS,ioos:station:USF.COMPS:C10:1,2015-09-03T22:35:00Z,27.1690,-82.9260,3.0,3.84,317.873,5.73,'1111122,1111122,1111122' 
COMPS,ioos:station:USF.COMPS:C10:1,2015-09-03T23:05:00Z,27.1690,-82.9260,3.0,4.941,314.011,6.067,'1111122,1111122,1111122' 
COMPS,ioos:station:USF.COMPS:C10:1,2015-09-03T23:35:00Z,27.1690,-82.9260,3.0,4.522,322.329,5.95,'1111122,1111122,1111122' 
COMPS,ioos:station:USF.COMPS:C10:1,2015-09-04T00:05:00Z,27.1690,-82.9260,3.0,3.89,325.179,5.127,'1111122,1111122,1111122' 
COMPS,ioos:station:USF.COMPS:C10:1,2015-09-04T00:35:00Z,27.1690,-82.9260,3.0,4.242,323.923,5.7,'1111122,1111122,1111122' 
COMPS,ioos:station:USF.COMPS:C10:1,2015-09-04T01:05:00Z,27.1690,-82.9260,3.0,3.309,346.021,4.363,'1111122,1111122,1111122' 
COMPS,ioos:station:USF.COMPS:C10:1,2015-09-04T01:35:00Z,27.1690,-82.9260,3.0,2.956,343.792,4.8,'1111122,1111122,1111122' 
COMPS,ioos:station:USF.COMPS:C10:1,2015-09-04T02:05:00Z,27.1690,-82.9260,3.0,3.073,337.77,4.177,'1111122,1111122,1111122' 
COMPS,ioos:station:USF.COMPS:C10:1,2015-09-04T02:35:00Z,27.1690,-82.9260,3.0,2.565,325.211,3.557,'1111122,1111122,1111122' 
COMPS,ioos:station:USF.COMPS:C10:1,2015-09-04T03:05:00Z,27.1690,-82.9260,3.0,2.052,314.05,2.877,'1111122,1111122,1111122' 
COMPS,ioos:station:USF.COMPS:C10:1,2015-09-04T03:35:00Z,27.1690,-82.9260,3.0,2.665,323.964,4.08,'1111122,1111122,1111122' 
COMPS,ioos:station:USF.COMPS:C10:1,2015-09-04T04:05:00Z,27.1690,-82.9260,3.0,3.302,327.802,4.177,'1111122,1111122,1111122' 
COMPS,ioos:station:USF.COMPS:C10:1,2015-09-04T04:35:00Z,27.1690,-82.9260,3.0,3.154,310.107,3.937,'1111122,1111122,1111122' 
COMPS,ioos:station:USF.COMPS:C10:1,2015-09-04T05:05:00Z,27.1690,-82.9260,3.0,2.882,324.895,4.313,'1111122,1111122,1111122' 
COMPS,ioos:station:USF.COMPS:C10:1,2015-09-04T05:35:00Z,27.1690,-82.9260,3.0,2.426,325.29,3.407,'1111122,1111122,1111122' 
COMPS,ioos:station:USF.COMPS:C10:1,2015-09-04T06:05:00Z,27.1690,-82.9260,3.0,1.679,324.112,2.247,'1111122,1111122,1111122' 
COMPS,ioos:station:USF.COMPS:C10:1,2015-09-04T06:35:00Z,27.1690,-82.9260,3.0,2.218,322.21,3.017,'1111122,1111122,1111122' 
COMPS,ioos:station:USF.COMPS:C10:1,2015-09-04T07:05:00Z,27.1690,-82.9260,3.0,3.532,318.656,4.633,'1111122,1111122,1111122' 
COMPS,ioos:station:USF.COMPS:C10:1,2015-09-04T07:35:00Z,27.1690,-82.9260,3.0,4.192,319.941,5.193,'1111122,1111122,1111122' 
COMPS,ioos:station:USF.COMPS:C10:1,2015-09-04T08:05:00Z,27.1690,-82.9260,3.0,3.42,311.936,4.39,'1111122,1111122,1111122' 
COMPS,ioos:station:USF.COMPS:C10:1,2015-09-04T08:35:00Z,27.1690,-82.9260,3.0,3.555,316.015,4.987,'1111122,1111122,1111122' 
COMPS,ioos:station:USF.COMPS:C10:1,2015-09-04T09:05:00Z,27.1690,-82.9260,3.0,2.982,309.609,4.163,'1111122,1111122,1111122' 
COMPS,ioos:station:USF.COMPS:C10:1,2015-09-04T09:35:00Z,27.1690,-82.9260,3.0,2.543,316.327,3.403,'1111122,1111122,1111122' 
COMPS,ioos:station:USF.COMPS:C10:1,2015-09-04T10:05:00Z,27.1690,-82.9260,3.0,2.666,320.84,3.68,'1111122,1111122,1111122' 
COMPS,ioos:station:USF.COMPS:C10:1,2015-09-04T10:35:00Z,27.1690,-82.9260,3.0,3.392,326.523,4.413,'1111122,1111122,1111122' 
COMPS,ioos:station:USF.COMPS:C10:1,2015-09-04T11:05:00Z,27.1690,-82.9260,3.0,3.607,328.275,4.333,'1111122,1111122,1111122' 
COMPS,ioos:station:USF.COMPS:C10:1,2015-09-04T11:35:00Z,27.1690,-82.9260,3.0,3.286,323.694,4.11,'1111122,1111122,1111122' 
COMPS,ioos:station:USF.COMPS:C10:1,2015-09-04T12:05:00Z,27.1690,-82.9260,3.0,3.434,326.852,4.493,'1111122,1111122,1111122' 
COMPS,ioos:station:USF.COMPS:C10:1,2015-09-04T12:35:00Z,27.1690,-82.9260,3.0,3.725,332.488,4.467,'1111122,1111122,1111122' 
COMPS,ioos:station:USF.COMPS:C10:1,2015-09-04T13:05:00Z,27.1690,-82.9260,3.0,3.738,331.77,4.94,'1111122,1111122,1111122' 
COMPS,ioos:station:USF.COMPS:C10:1,2015-09-04T13:35:00Z,27.1690,-82.9260,3.0,4.043,342.266,5.047,'1111122,1111122,1111122' 
COMPS,ioos:station:USF.COMPS:C10:1,2015-09-04T14:05:00Z,27.1690,-82.9260,3.0,4.806,340.645,6.153,'1111122,1111122,1111122' 
COMPS,ioos:station:USF.COMPS:C10:1,2015-09-04T14:35:00Z,27.1690,-82.9260,3.0,3.902,339.071,5.167,'1111122,1111122,1111122' 
COMPS,ioos:station:USF.COMPS:C10:1,2015-09-04T15:05:00Z,27.1690,-82.9260,3.0,4.0,336.336,4.903,'1111122,1111122,1111122' 
COMPS,ioos:station:USF.COMPS:C10:1,2015-09-04T15:35:00Z,27.1690,-82.9260,3.0,3.408,349.347,4.353,'1111122,1111122,1111122' 
COMPS,ioos:station:USF.COMPS:C10:1,2015-09-04T17:05:00Z,27.1690,-82.9260,3.0,3.656,355.048,4.61,'1111122,1111122,1111122' 
COMPS,ioos:station:USF.COMPS:C10:1,2015-09-04T17:35:00Z,27.1690,-82.9260,3.0,3.555,350.437,5.187,'1111122,1111122,1111122' 
COMPS,ioos:station:USF.COMPS:C10:1,2015-09-04T20:05:00Z,27.1690,-82.9260,3.0,4.105,295.593,5.233,'1111122,1111122,1111122' 
COMPS,ioos:station:USF.COMPS:C10:1,2015-09-04T20:35:00Z,27.1690,-82.9260,3.0,4.4,283.045,5.39,'1111122,1111122,1111122' 
COMPS,ioos:station:USF.COMPS:C10:1,2015-09-05T04:05:00Z,27.1690,-82.9260,3.0,2.761,38.936,3.71,'1111122,1111122,1111122' 
COMPS,ioos:station:USF.COMPS:C10:1,2015-09-05T04:35:00Z,27.1690,-82.9260,3.0,3.31,53.193,4.53,'1111122,1111122,1111122' 
COMPS,ioos:station:USF.COMPS:C10:1,2015-09-05T05:05:00Z,27.1690,-82.9260,3.0,3.371,59.91,4.487,'1111122,1111122,1111122' 
COMPS,ioos:station:USF.COMPS:C10:1,2015-09-05T05:35:00Z,27.1690,-82.9260,3.0,2.832,92.503,3.58,'1111122,1111122,1111122' 
COMPS,ioos:station:USF.COMPS:C10:1,2015-09-05T06:05:00Z,27.1690,-82.9260,3.0,3.534,46.505,4.797,'1111122,1111122,1111122' 
COMPS,ioos:station:USF.COMPS:C10:1,2015-09-05T06:35:00Z,27.1690,-82.9260,3.0,3.382,41.113,4.93,'1111122,1111122,1111122' 
COMPS,ioos:station:USF.COMPS:C10:1,2015-09-05T07:05:00Z,27.1690,-82.9260,3.0,3.043,37.671,3.87,'1111122,1111122,1111122' 
COMPS,ioos:station:USF.COMPS:C10:1,2015-09-05T07:35:00Z,27.1690,-82.9260,3.0,2.716,21.6,3.933,'1111122,1111122,1111122' 
COMPS,ioos:station:USF.COMPS:C10:1,2015-09-05T08:05:00Z,27.1690,-82.9260,3.0,3.061,30.9,4.14,'1111122,1111122,1111122' 
COMPS,ioos:station:USF.COMPS:C10:1,2015-09-05T08:35:00Z,27.1690,-82.9260,3.0,3.442,36.666,4.473,'1111122,1111122,1111122' 
COMPS,ioos:station:USF.COMPS:C10:1,2015-09-05T09:05:00Z,27.1690,-82.9260,3.0,3.702,70.298,4.627,'1111122,1111122,1111122' 
COMPS,ioos:station:USF.COMPS:C10:1,2015-09-05T09:35:00Z,27.1690,-82.9260,3.0,2.694,90.549,3.937,'1111122,1111122,1111122' 
COMPS,ioos:station:USF.COMPS:C10:1,2015-09-05T10:05:00Z,27.1690,-82.9260,3.0,2.918,91.76,4.043,'1111122,1111122,1111122' 